[[{"header":{"parameterUnit":"m.s-1","parameterCategory":1,"la1":30.2991,"la2":30.254,"lo1":-89.0895,"lo2":-89.0444,"dy":0.0017,"dx":0.0017,"nx":28,"ny":28,"refTime":"2024-12-23T03:00:00:Z","depth":0,"parameterNumber":2,"parameterNumberName":"U-component_of_WINDS"},"data":[0,0,0,0,0,0,0,0,0,0,0,0,0,0,0,0,0,0,0,0,0,0,0,0,0,0,0,0,0,0,0,0,0,0,0,0,0,0,0,0,0,0,0,0,0,0,0,0,0,0,0,0,0,0,0,0,0,0,-0.9736,-0.9736,0,-0.9708,-0.9708,-0.9708,-0.9673,-0.9673,-0.9672,-0.9672,-0.9644,-0.9644,-0.9644,0,0,0,0,0,0,0,0,0,0,0,0,0,-0.9759,-0.9758,-0.9736,-0.9736,-0.9735,-0.9708,-0.9708,-0.9708,-0.9673,-0.9673,-0.9672,-0.9672,-0.9644,-0.9644,-0.9644,0,0,0,0,0,0,0,0,0,0,0,0,0,-0.9742,-0.9758,-0.9736,-0.9715,-0.9713,-0.9709,-0.9708,-0.9708,-0.9674,-0.9673,-0.9672,-0.9671,-0.9644,-0.9644,-0.9644,-0.9658,0,0,-0.9643,-0.9643,0,0,0,0,0,0,0,0,-0.9743,-0.9741,-0.9718,-0.9716,-0.9714,-0.9693,-0.9706,-0.9691,-0.9674,-0.9688,-0.9672,-0.9671,-0.9661,-0.966,-0.9656,-0.9657,-0.9656,-0.9643,-0.9642,-0.9642,-0.9642,0,0,0,0,0,0,0,-0.9744,-0.9742,-0.9725,-0.9718,-0.9715,-0.9707,-0.9703,-0.9703,-0.968,-0.9687,-0.9685,-0.9682,-0.966,-0.9657,-0.9655,-0.9655,-0.9643,-0.9642,-0.9642,-0.9642,-0.9667,-0.9667,0,0,0,0,0,0,-0.9748,-0.9743,-0.9726,-0.9724,-0.9727,-0.9707,-0.9703,-0.9701,-0.968,-0.9676,-0.9683,-0.968,-0.9658,-0.9656,-0.9654,-0.967,-0.9642,-0.9642,-0.9642,-0.9666,-0.9667,-0.9668,0,0,0,0,0,0,-0.9749,-0.9747,-0.9727,-0.9733,-0.973,-0.9708,-0.9705,-0.9701,-0.9697,-0.9676,-0.9672,-0.9683,-0.9657,-0.9655,-0.9657,-0.9669,-0.9642,-0.9642,-0.9665,-0.9666,-0.9667,-0.9702,0,0,0,0,0,0,-0.975,-0.9747,-0.9753,-0.9733,-0.973,-0.9731,-0.9706,-0.9701,-0.9697,-0.9694,-0.9676,-0.9672,-0.9656,-0.9658,-0.9657,-0.9668,-0.9641,-0.9664,-0.9665,-0.9667,-0.97,-0.9704,-0.9708,0,0,0,0,0,-0.9751,-0.9764,-0.9753,-0.9751,-0.9736,-0.9731,-0.9729,-0.971,-0.9698,-0.9703,-0.9689,-0.9673,-0.9667,-0.9659,-0.9657,-0.9668,-0.9663,-0.9665,-0.9667,-0.9698,-0.9703,-0.9708,0,0,0,0,0,0,-0.9785,-0.9761,-0.9749,-0.9756,-0.9746,-0.9726,-0.9732,-0.9717,-0.971,-0.9708,-0.9684,-0.9681,-0.9686,-0.9677,-0.9668,-0.9681,-0.9663,-0.9664,-0.9687,-0.9692,-0.9696,-0.9698,-0.9641,0,0,0,0,0,-0.9794,-0.9792,-0.9771,-0.9779,-0.9775,-0.9754,-0.9752,-0.9738,-0.9727,-0.9722,-0.9709,-0.9699,-0.9695,-0.9692,-0.9688,-0.9698,-0.9694,-0.9704,-0.9708,-0.9712,-0.9714,-0.9719,-0.9724,-0.9674,-0.9674,-0.9674,0,0,-0.9811,-0.9798,-0.9798,-0.9786,-0.9777,-0.9776,-0.9751,-0.9751,-0.975,-0.9722,-0.9724,-0.9714,-0.9701,-0.9708,-0.971,-0.97,-0.9727,-0.9714,-0.9717,-0.9718,-0.9721,-0.9726,-0.973,-0.9675,-0.9675,-0.9675,0,0,-0.9843,-0.9832,-0.9838,-0.9829,-0.9815,-0.9801,-0.9803,-0.9785,-0.9777,-0.9778,-0.9757,-0.9756,-0.9749,-0.9741,-0.9736,-0.9764,-0.9749,-0.9763,-0.9785,-0.979,-0.9794,-0.9798,-0.9808,-0.9812,-0.9765,-0.9765,-0.9765,0,-0.9867,-0.9865,-0.9843,-0.9845,-0.984,-0.9814,-0.982,-0.9812,-0.9798,-0.9795,-0.9784,-0.9776,-0.9765,-0.977,-0.9776,-0.9773,-0.9774,-0.9765,-0.9795,-0.9799,-0.9801,-0.9811,-0.9815,-0.9767,-0.9767,-0.9766,-0.9766,0,-0.9895,-0.9893,-0.99,-0.9886,-0.9882,-0.9886,-0.9865,-0.9863,-0.985,-0.9837,-0.9839,-0.9825,-0.9817,-0.9817,-0.9804,-0.9819,-0.9814,-0.98,-0.9781,-0.9808,-0.9817,-0.9821,-0.977,-0.9769,-0.9768,-0.9768,0,0,-0.9948,-0.9922,-0.9925,-0.9919,-0.9901,-0.99,-0.9902,-0.9894,-0.9893,-0.9884,-0.9886,-0.988,-0.9867,-0.9861,-0.9847,-0.9851,-0.9875,-0.9836,-0.9835,-0.9844,-0.9892,-0.9904,-0.9908,-0.9864,-0.9865,-0.9865,-0.9893,0,-0.9977,-0.998,-0.9961,-0.9969,-0.9968,-0.9943,-0.9945,-0.9934,-0.9922,-0.992,-0.9906,-0.9903,-0.9885,-0.9882,-0.9885,-0.9871,-0.9884,-0.9869,-0.9866,-0.9866,-0.9871,-0.9913,-0.9925,-0.9952,-0.9897,-0.9897,-0.9897,0,-1.0012,-1.0004,-1.0012,-0.9994,-0.9993,-0.9995,-0.9986,-0.9984,-0.9971,-0.9962,-0.9956,-0.9939,-0.994,-0.9921,-0.9923,-0.9913,-0.991,-0.9904,-0.9904,-0.9904,-0.9884,-0.9914,-0.9961,-0.9965,-0.9903,-0.9902,-0.9902,0,-1.0051,-1.0043,-1.0046,-1.0041,-1.002,-1.0022,-1.0014,-1.0,-0.9997,-0.9989,-0.9986,-0.9979,-0.9975,-0.9969,-0.9951,-0.9939,-0.9955,-0.9935,-0.9948,-0.9948,-0.9953,-0.9953,-1.0,-0.995,-0.995,-0.995,-0.995,0,-1.0086,-1.0092,-1.0064,-1.0066,-1.0072,-1.005,-1.0056,-1.0045,-1.0033,-1.0033,-1.0011,-1.0011,-0.9986,-0.9984,-0.9969,-0.9973,-0.9971,-0.9964,-0.9961,-0.9967,-0.9968,-0.9966,-0.9964,-0.9951,-0.9951,-0.995,-0.995,0,-1.0132,-1.0113,-1.0115,-1.0095,-1.009,-1.0095,-1.0078,-1.0079,-1.0065,-1.0065,-1.0064,-1.0043,-1.0039,-1.0019,-1.0011,-1.0001,-1.001,-1.0002,-1.0015,-1.0012,-1.0027,-1.0026,-1.0075,-1.008,-1.0026,-1.0026,-1.0027,0,-1.0156,-1.016,-1.014,-1.0138,-1.013,-1.0127,-1.0124,-1.0101,-1.0098,-1.0084,-1.0087,-1.0081,-1.0076,-1.007,-1.0054,-1.0048,-1.004,-1.0057,-1.0039,-1.0045,-1.0041,-1.0041,-1.0042,-1.0062,-1.0062,-1.0063,-1.0063,0,-1.0201,-1.0191,-1.0186,-1.0178,-1.0174,-1.0167,-1.0158,-1.0158,-1.0133,-1.0131,-1.0126,-1.0122,-1.0113,-1.0107,-1.0098,-1.0089,-1.0073,-1.0069,-1.0072,-1.0079,-1.0086,-1.0083,-1.0026,-1.0068,-1.0068,-1.0068,-1.0067,-1.0067,-1.0237,-1.0239,-1.0225,-1.0221,-1.0212,-1.0204,-1.0204,-1.019,-1.0186,-1.0177,-1.0164,-1.0162,-1.0149,-1.0134,-1.0127,-1.0125,-1.0115,-1.0119,-1.012,-1.0122,-1.0125,-1.0086,-1.0123,-1.0122,-1.0122,-1.0122,-1.0122,0,-1.0281,-1.0271,-1.0267,-1.0255,-1.0252,-1.0235,-1.0225,-1.0223,-1.0221,-1.021,-1.0205,-1.02,-1.0194,-1.0178,-1.017,-1.0172,-1.0164,-1.0171,-1.0171,-1.0169,-1.0134,-1.0132,-1.0177,-1.0177,-1.0177,-1.0177,-1.0177,-1.0177,-1.0304,-1.0308,-1.0296,-1.0295,-1.0285,-1.0282,-1.0277,-1.027,-1.0261,-1.0257,-1.0252,-1.0241,-1.0228,-1.0219,-1.0214,-1.0209,-1.0208,-1.0217,-1.021,-1.0177,-1.0172,-1.0167,-1.0166,-1.0217,-1.0217,-1.0246,-1.0246,-1.0247]},{"header":{"parameterUnit":"m.s-1","parameterCategory":1,"la1":30.2991,"la2":30.254,"lo1":-89.0895,"lo2":-89.0444,"dy":0.0017,"dx":0.0017,"nx":28,"ny":28,"refTime":"2024-12-23T03:00:00:Z","depth":0,"parameterNumber":3,"parameterNumberName":"V-component_of_WINDS"},"data":[0,0,0,0,0,0,0,0,0,0,0,0,0,0,0,0,0,0,0,0,0,0,0,0,0,0,0,0,0,0,0,0,0,0,0,0,0,0,0,0,0,0,0,0,0,0,0,0,0,0,0,0,0,0,0,0,0,0,-2.6708,-2.6709,0,-2.6752,-2.6753,-2.6753,-2.6754,-2.6753,-2.6752,-2.6752,-2.6794,-2.6796,-2.6797,0,0,0,0,0,0,0,0,0,0,0,0,0,-2.6623,-2.6625,-2.6708,-2.6709,-2.6709,-2.6752,-2.6753,-2.6753,-2.6754,-2.6753,-2.6752,-2.6752,-2.6793,-2.6795,-2.6797,0,0,0,0,0,0,0,0,0,0,0,0,0,-2.6663,-2.6625,-2.6708,-2.6715,-2.6716,-2.6752,-2.6753,-2.6753,-2.6754,-2.6753,-2.6752,-2.6751,-2.6793,-2.6795,-2.6798,-2.6829,0,0,-2.6805,-2.6806,0,0,0,0,0,0,0,0,-2.666,-2.6666,-2.6713,-2.6714,-2.6716,-2.6747,-2.6738,-2.6779,-2.6754,-2.6739,-2.6752,-2.6751,-2.6779,-2.6782,-2.6792,-2.6831,-2.6833,-2.6805,-2.6807,-2.6808,-2.6808,0,0,0,0,0,0,0,-2.6658,-2.6664,-2.6726,-2.6714,-2.6715,-2.6715,-2.672,-2.6746,-2.6763,-2.674,-2.6741,-2.6746,-2.6779,-2.679,-2.6793,-2.6833,-2.6805,-2.6807,-2.6809,-2.681,-2.6902,-2.6903,0,0,0,0,0,0,-2.6654,-2.6662,-2.6724,-2.6727,-2.6686,-2.6717,-2.6722,-2.6737,-2.6763,-2.6766,-2.6747,-2.6746,-2.6786,-2.679,-2.6795,-2.6835,-2.6808,-2.681,-2.6811,-2.6901,-2.6902,-2.6903,0,0,0,0,0,0,-2.6652,-2.666,-2.6722,-2.6694,-2.6702,-2.672,-2.6736,-2.6739,-2.6749,-2.6767,-2.677,-2.6755,-2.6786,-2.6791,-2.6821,-2.6836,-2.6811,-2.6813,-2.69,-2.6901,-2.6903,-2.6914,0,0,0,0,0,0,-2.665,-2.6659,-2.6671,-2.6695,-2.6704,-2.6749,-2.6737,-2.674,-2.6754,-2.6753,-2.6776,-2.6778,-2.6785,-2.6817,-2.6824,-2.6839,-2.6815,-2.6899,-2.69,-2.6902,-2.6912,-2.6916,-2.6919,0,0,0,0,0,-2.6647,-2.6672,-2.6672,-2.668,-2.672,-2.675,-2.6755,-2.6763,-2.6755,-2.6768,-2.678,-2.6778,-2.6833,-2.682,-2.6827,-2.6844,-2.6898,-2.69,-2.6902,-2.6911,-2.6915,-2.6918,0,0,0,0,0,0,-2.6649,-2.6675,-2.6676,-2.6709,-2.6727,-2.675,-2.6766,-2.6767,-2.6787,-2.6785,-2.6794,-2.6799,-2.6829,-2.6839,-2.6824,-2.6876,-2.6864,-2.6868,-2.6869,-2.6873,-2.6876,-2.6873,-2.6817,0,0,0,0,0,-2.6653,-2.6676,-2.6697,-2.6725,-2.6734,-2.6748,-2.6762,-2.6767,-2.6785,-2.6793,-2.6806,-2.6824,-2.6846,-2.6859,-2.688,-2.6913,-2.6919,-2.6928,-2.6931,-2.6934,-2.6937,-2.6957,-2.6962,-2.691,-2.691,-2.691,0,0,-2.6662,-2.668,-2.6693,-2.6726,-2.674,-2.6763,-2.6755,-2.6779,-2.6796,-2.6796,-2.6826,-2.6837,-2.6857,-2.6889,-2.6904,-2.6898,-2.6952,-2.6936,-2.6938,-2.694,-2.696,-2.6965,-2.6969,-2.6912,-2.6912,-2.6911,0,0,-2.6692,-2.6706,-2.6732,-2.6747,-2.677,-2.678,-2.6786,-2.6808,-2.6816,-2.6846,-2.6847,-2.6867,-2.6903,-2.6919,-2.6931,-2.6967,-2.6966,-2.6973,-2.6989,-2.7009,-2.7013,-2.7016,-2.7031,-2.7035,-2.6976,-2.6976,-2.6976,0,-2.67,-2.6736,-2.6745,-2.677,-2.6785,-2.6787,-2.6813,-2.6826,-2.6854,-2.6864,-2.6858,-2.6905,-2.6918,-2.6955,-2.6964,-2.6973,-2.6981,-2.6971,-2.7011,-2.7015,-2.7019,-2.7032,-2.7038,-2.6977,-2.6977,-2.6977,-2.6977,0,-2.6746,-2.677,-2.6788,-2.6817,-2.6833,-2.6858,-2.6871,-2.6886,-2.689,-2.69,-2.6931,-2.6948,-2.6973,-2.6981,-2.6984,-2.7019,-2.7015,-2.701,-2.6998,-2.7024,-2.7038,-2.7043,-2.6978,-2.6978,-2.6977,-2.6977,0,0,-2.6777,-2.6812,-2.6819,-2.6832,-2.6858,-2.6877,-2.6902,-2.6928,-2.6942,-2.696,-2.6983,-2.7014,-2.701,-2.7024,-2.7028,-2.7045,-2.7075,-2.7038,-2.7039,-2.7046,-2.7115,-2.712,-2.7126,-2.7074,-2.7075,-2.7076,-2.7114,0,-2.6811,-2.6858,-2.6867,-2.6907,-2.6931,-2.6933,-2.6956,-2.6974,-2.6984,-2.7005,-2.7015,-2.7038,-2.703,-2.7039,-2.7056,-2.7068,-2.7089,-2.7065,-2.7095,-2.7096,-2.7091,-2.7132,-2.7137,-2.7173,-2.7119,-2.712,-2.712,0,-2.6856,-2.6878,-2.6921,-2.6946,-2.6956,-2.6976,-2.7001,-2.702,-2.7041,-2.7047,-2.7063,-2.7066,-2.7093,-2.7079,-2.7116,-2.71,-2.7112,-2.712,-2.7122,-2.7126,-2.7111,-2.7139,-2.7184,-2.719,-2.7128,-2.7128,-2.7127,0,-2.6877,-2.6917,-2.6949,-2.696,-2.6989,-2.7003,-2.7015,-2.7035,-2.705,-2.7071,-2.7081,-2.7105,-2.7118,-2.7136,-2.7145,-2.7134,-2.7182,-2.7169,-2.7188,-2.7188,-2.7199,-2.7199,-2.7248,-2.7205,-2.7205,-2.7205,-2.7204,0,-2.6914,-2.694,-2.6959,-2.6979,-2.7009,-2.7019,-2.7048,-2.706,-2.7078,-2.71,-2.7102,-2.7122,-2.7133,-2.7154,-2.7161,-2.7192,-2.7197,-2.7203,-2.7205,-2.7204,-2.7203,-2.7213,-2.7212,-2.7206,-2.7206,-2.7205,-2.7205,0,-2.6943,-2.6956,-2.6991,-2.7016,-2.7022,-2.7044,-2.7065,-2.7084,-2.7094,-2.7121,-2.7128,-2.7144,-2.717,-2.7181,-2.7212,-2.7217,-2.7252,-2.7251,-2.7246,-2.7247,-2.7266,-2.7265,-2.7325,-2.7334,-2.7283,-2.7284,-2.7284,0,-2.6966,-2.6987,-2.7015,-2.703,-2.7044,-2.7068,-2.7084,-2.7094,-2.7111,-2.7137,-2.7153,-2.7179,-2.72,-2.7241,-2.7255,-2.7279,-2.728,-2.7299,-2.7284,-2.7282,-2.7282,-2.7282,-2.7284,-2.7303,-2.7303,-2.7304,-2.7304,0,-2.7007,-2.7013,-2.7037,-2.7063,-2.7083,-2.7104,-2.7124,-2.7136,-2.715,-2.7168,-2.7195,-2.7212,-2.7245,-2.7271,-2.7296,-2.7308,-2.7309,-2.7309,-2.7315,-2.7315,-2.7312,-2.7315,-2.7255,-2.7308,-2.7307,-2.7307,-2.7307,-2.7307,-2.7035,-2.7055,-2.7078,-2.7104,-2.7121,-2.714,-2.716,-2.7174,-2.7197,-2.7225,-2.723,-2.7259,-2.7279,-2.7314,-2.7327,-2.7349,-2.7344,-2.7353,-2.7355,-2.7358,-2.736,-2.7307,-2.7354,-2.7354,-2.7353,-2.7353,-2.7353,0,-2.7078,-2.7093,-2.7117,-2.7147,-2.7168,-2.7167,-2.719,-2.7208,-2.7234,-2.7254,-2.7275,-2.7307,-2.7333,-2.7349,-2.7375,-2.739,-2.7391,-2.7397,-2.7396,-2.7399,-2.7362,-2.7355,-2.7395,-2.7395,-2.7395,-2.7395,-2.7395,-2.7395,-2.7103,-2.7136,-2.7145,-2.7187,-2.7201,-2.7232,-2.7245,-2.7263,-2.7279,-2.7315,-2.7337,-2.7347,-2.7366,-2.7393,-2.7417,-2.7421,-2.7431,-2.7437,-2.7441,-2.7406,-2.7402,-2.7398,-2.7391,-2.7439,-2.7439,-2.7477,-2.7477,-2.7477]}]]